Location: Newark
(52.3500°N, 175.9667°E)
Time: 22:14:22
(UTC+00:00)

Transit 4A - Pass Details

Date: 27 April 2021
Orbit: 871 x 974 km, 66.8° (Epoch: 16 May)

Event Time Altitude Azimuth Distance (km) Brightness Sun altitude
Rises 08:45:46 0° 164° (SSE) 3,616 - -10.0°
Reaches altitude 10° 08:49:06 10° 147° (SSE) 2,659 - -10.4°
Exits shadow 08:50:03 13° 140° (SE) 2,445 9.4 -10.5°
Maximum altitude 08:53:10 19° 106° (ESE) 2,093 9.2 -10.9°
Drops below altitude 10° 08:57:10 10° 64° (ENE) 2,623 10.0 -11.3°
Sets 09:00:25 0° 47° (NE) 3,550 10.9 -11.7°
